Weather History for Marrakech, Morocco

Change the Weather History Date:

Thursday, November 8, 2012

  Actual Average Record
Temperature  
Mean Temperature 66 °F -  
Max Temperature 73 °F 68 °F 89 °F (1998)
Min Temperature 59 °F 47 °F 46 °F (2011)
Cooling Degree Days 1    
Growing Degree Days 16 (Base 50)    
Moisture  
Dew Point 63 °F    
Average Humidity 97    
Maximum Humidity 100    
Minimum Humidity 81    
Precipitation  
Precipitation 0.12 in 0.05 in - ()
Sea Level Pressure  
Sea Level Pressure 30.01 in    
Wind  
Wind Speed 6 mph ()    
Max Wind Speed 12 mph    
Max Gust Speed -    
Visibility 3.7 miles    
Events Rain    
Averages and records for this station are not official NWS values.
T = Trace of Precipitation, MM = Missing Value Source: Averaged Metar Reports

Daily Weather History Graph

Daily Weather History Graph

Search for Another Location

Airport:

Trip Planner

Search our weather history database for the weather conditions in past years. The results will help you decide how hot, cold, wet, or windy it might be!

Date:

Astronomy

Nov. 08, 2012 Rise Set
Actual Time 6:54 AM WET 5:37 PM WET
Civil Twilight 6:28 AM WET 6:02 PM WET
Nautical Twilight 5:59 AM WET 6:31 PM WET
Astronomical Twilight 5:31 AM WET 7:00 PM WET
Moon 12:57 AM WET (11/8) 1:51 PM WET (11/8)
Length of Visible Light 11h 33m
Length of Day
10h 42m
Waning Crescent, 35% of the Moon is Illuminated
Nov 8
Waning Crescent
Nov 13
New
Nov 20
First Quarter
Nov 28
Full
Dec 6
Last Quarter

Hourly Weather History & Observations

Time (WET) Temp. Dew Point Humidity Pressure Visibility Wind Dir Wind Speed Gust Speed Precip Events Conditions
12:00 AM 67 °F 63 °F 81% 29.93 in 6 mi SSW 6.9 mph - -   Scattered Clouds
12:00 AM 66.2 °F 62.6 °F 88% 29.98 in 6.2 mi SSW 6.9 mph - N/A   Partly Cloudy
3:00 AM 65 °F 63 °F 90% 29.92 in - West 5.8 mph - -  
6:00 AM 64 °F 64 °F 99% 29.97 in 4 mi West 8.1 mph - -   Scattered Clouds
6:30 AM 64.4 °F 64.4 °F 100% 29.98 in 3.7 mi West 11.5 mph - N/A   Partly Cloudy
7:00 AM 62.6 °F 62.6 °F 100% 30.01 in 2.2 mi West 8.1 mph - N/A Rain Light Rain
7:01 AM 62.6 °F 62.6 °F 100% 30.01 in 2.2 mi West 6.9 mph - N/A   Scattered Clouds
7:30 AM 62.6 °F 62.6 °F 100% 30.01 in - West 4.6 mph - N/A   Scattered Clouds
8:00 AM 64.4 °F 64.4 °F 100% 30.04 in 3.1 mi SW 4.6 mph - N/A   Mostly Cloudy
8:30 AM 64.4 °F 64.4 °F 100% 30.04 in 4.3 mi Variable 2.3 mph - N/A   Mostly Cloudy
8:39 AM 64.4 °F 64.4 °F 100% 30.04 in 3.1 mi WSW 4.6 mph - N/A   Mostly Cloudy
9:00 AM 64.4 °F 64.4 °F 100% 30.04 in 3.1 mi WSW 4.6 mph - N/A   Mostly Cloudy
10:00 AM 66.2 °F 66.2 °F 100% 30.04 in 5.0 mi West 3.5 mph - N/A   Mostly Cloudy
10:30 AM 66.2 °F 64.4 °F 94% 30.06 in 4.3 mi NNW 3.5 mph - N/A   Mostly Cloudy
11:00 AM 66.2 °F 64.4 °F 94% 30.01 in 4.3 mi NW 4.6 mph - N/A   Mostly Cloudy
11:30 AM 66.2 °F 64.4 °F 94% 30.04 in 3.7 mi West 5.8 mph - N/A   Scattered Clouds
12:00 PM 66 °F 65 °F 94% 29.98 in 4 mi West 4.6 mph - -   Mist
12:00 PM 66.2 °F 64.4 °F 94% 30.04 in 4.3 mi West 5.8 mph - N/A   Scattered Clouds
12:30 PM 66.2 °F 66.2 °F 100% 30.01 in 3.7 mi West 4.6 mph - N/A   Scattered Clouds
1:00 PM 66.2 °F 64.4 °F 94% 30.01 in 5.6 mi NW 5.8 mph - N/A   Scattered Clouds
1:30 PM 66.2 °F 64.4 °F 94% 30.01 in 3.1 mi WNW 6.9 mph - N/A Rain Rain
2:30 PM 66.2 °F 64.4 °F 94% 29.98 in 3.1 mi NW 6.9 mph - N/A   Mostly Cloudy
2:45 PM 65 °F 63 °F 90% 29.94 in 3 mi NNW 6.9 mph - - Rain Light Rain
3:00 PM 64.4 °F 62.6 °F 94% 29.98 in 3.1 mi NNW 6.9 mph - N/A Rain Rain
3:30 PM 64.4 °F 62.6 °F 94% 29.98 in 3.1 mi West 9.2 mph - N/A Rain Rain
4:00 PM 64.4 °F 62.6 °F 94% 29.98 in 3.1 mi West 8.1 mph - N/A Rain Rain
4:30 PM 64.4 °F 62.6 °F 94% 29.98 in 3.1 mi WNW 9.2 mph - N/A Rain Rain
5:00 PM 62.6 °F 62.6 °F 100% 30.01 in 3.1 mi WNW 9.2 mph - N/A Rain Rain
5:30 PM 62.6 °F 62.6 °F 100% 30.01 in 3.1 mi WNW 10.4 mph - N/A   Partly Cloudy
5:47 PM 61 °F 61 °F 100% 29.97 in 3 mi WNW 10.4 mph - - Rain Heavy Rain Showers
6:00 PM 60.8 °F 60.8 °F 100% 30.01 in 3.1 mi WNW 10.4 mph - N/A Rain Rain Showers
6:30 PM 60.8 °F 60.8 °F 100% 30.01 in 3.1 mi WNW 6.9 mph - N/A Rain Rain Showers
7:00 PM 60.8 °F 60.8 °F 100% 30.01 in 3.7 mi SW 4.6 mph - N/A   Partly Cloudy
7:30 PM 60.8 °F 60.8 °F 100% 30.04 in 3.7 mi SSW 3.5 mph - N/A   Partly Cloudy
8:00 PM 60.8 °F 60.8 °F 100% 30.04 in 3.7 mi SSW 3.5 mph - N/A   Partly Cloudy
8:30 PM 60.8 °F 60.8 °F 100% 30.04 in 3.7 mi Calm Calm - N/A   Drizzle
9:00 PM 61 °F 61 °F 99% 30.01 in 4 mi West 2.3 mph - - Rain Light Drizzle
9:00 PM 60.8 °F 60.8 °F 100% 30.04 in 3.7 mi Variable 1.2 mph - N/A   Drizzle
9:30 PM 60.8 °F 60.8 °F 100% 30.04 in 3.7 mi WNW 3.5 mph - N/A Rain Rain
10:00 PM 60.8 °F 60.8 °F 100% 30.04 in 3.7 mi North 4.6 mph - N/A Rain Rain
10:30 PM 59.0 °F 59.0 °F 100% 30.04 in 3.7 mi NNW 3.5 mph - N/A Rain Rain
11:00 PM 59.0 °F 59.0 °F 100% 30.04 in 3.7 mi Variable 1.2 mph - N/A   Partly Cloudy
11:30 PM 60.8 °F 59.0 °F 94% 30.04 in 5.0 mi WSW 3.5 mph - N/A   Mostly Cloudy